Mason City, IA

10:45 PM CDT on April 24, 2017 (GMT -0500)
Mason City Municipal

Weather History for KMCW - May, 2014

Change the Weather History Date:

Monday, May 12, 2014

  Actual Average Record
Temperature  
Mean Temperature 59 °F 57 °F  
Max Temperature 72 °F 69 °F 90 °F (1907)
Min Temperature 46 °F 45 °F 26 °F (1895)
Degree Days  
Heating Degree Days 6 9  
Month to date heating degree days 129 123  
Since 1 July heating degree days 8492 7523  
Cooling Degree Days 0 1  
Month to date cooling degree days 4 4  
Year to date cooling degree days 4 9  
Growing Degree Days 8 (Base 50)    
Moisture  
Dew Point 58 °F    
Average Humidity 89    
Maximum Humidity 100    
Minimum Humidity 78    
Precipitation  
Precipitation 0.57 in 0.15 in 1.84 in (1999)
Month to date precipitation 1.96 1.73  
Year to date precipitation 13.67 9.53  
Snow  
Snow 0.00 in 0.00 in - ()
Month to date snowfall 0.0 0.1  
Since 1 July snowfall 58.0 41.3  
Snow Depth 0.00 in    
Sea Level Pressure  
Sea Level Pressure 29.75 in    
Wind  
Wind Speed 13 mph (SSW)    
Max Wind Speed 26 mph    
Max Gust Speed 32 mph    
Visibility 8 miles    
Events Rain , Thunderstorm    
T = Trace of Precipitation, MM = Missing Value Source: NWS Daily Summary

Daily Weather History Graph

Daily Weather History Graph

Search for Another Location

Airport or City:

Trip Planner

Search our weather history database for the weather conditions in past years. The results will help you decide how hot, cold, wet, or windy it might be!

Date:

Astronomy

May. 12, 2014 Rise Set
Actual Time 5:52 AM CDT 8:27 PM CDT
Civil Twilight 5:20 AM CDT 8:59 PM CDT
Nautical Twilight 4:40 AM CDT 9:40 PM CDT
Astronomical Twilight 3:54 AM CDT 10:26 PM CDT
Moon 6:22 PM CDT (5/12) 4:36 AM CDT (5/12)
Length of Visible Light 15h 39m
Length of Day
14h 34m
Waxing Gibbous, 95% of the Moon is Illuminated
May 12
Waxing Gibbous
May 14
Full
May 21
Last Quarter
May 28
New
Jun 5
First Quarter

Hourly Weather History & Observations

Time (CDT) Temp. Windchill Dew Point Humidity Pressure Visibility Wind Dir Wind Speed Gust Speed Precip Events Conditions
12:05 AM 61.0 °F - 59.0 °F 93% 29.78 in 6.0 mi SSE 11.5 mph - 0.02 in Rain Light Rain
12:12 AM 60.1 °F - 57.9 °F 93% 29.78 in 6.0 mi SE 11.5 mph - 0.05 in Rain Rain
12:20 AM 60.1 °F - 57.9 °F 93% 29.78 in 5.0 mi South 11.5 mph - 0.08 in Rain , Thunderstorm Rain
12:35 AM 61.0 °F - 59.0 °F 93% 29.78 in 7.0 mi SSE 12.7 mph - 0.12 in Rain Rain
12:53 AM 61.0 °F - 59.0 °F 93% 29.71 in 5.0 mi SE 13.8 mph 24.2 mph 0.18 in Rain Rain
1:53 AM 61.0 °F - 60.1 °F 97% 29.73 in 6.0 mi South 18.4 mph 24.2 mph 0.06 in Rain Rain
2:53 AM 61.0 °F - 59.0 °F 93% 29.71 in 10.0 mi SSW 9.2 mph - 0.03 in   Scattered Clouds
3:53 AM 60.1 °F - 59.0 °F 96% 29.67 in 10.0 mi South 5.8 mph - N/A   Clear
4:53 AM 60.1 °F - 59.0 °F 96% 29.68 in 10.0 mi South 10.4 mph - 0.00 in Rain Light Rain
5:53 AM 60.1 °F - 59.0 °F 96% 29.71 in 10.0 mi South 5.8 mph - 0.07 in   Overcast
6:53 AM 59.0 °F - 59.0 °F 100% 29.71 in 6.0 mi South 15.0 mph - 0.08 in Rain Rain
7:53 AM 60.1 °F - 59.0 °F 96% 29.72 in 4.0 mi South 11.5 mph - 0.18 in Rain Rain
8:23 AM 60.1 °F - 60.1 °F 100% 29.77 in 5.0 mi South 12.7 mph - 0.01 in Rain Rain
8:53 AM 60.8 °F - 59.0 °F 94% 29.74 in 7.0 mi East 5.8 mph - N/A Rain Light Rain
9:53 AM 60.1 °F - 60.1 °F 100% 29.76 in 10.0 mi South 8.1 mph - 0.01 in Rain Light Rain
10:18 AM 61.0 °F - 60.1 °F 97% 29.80 in 2.5 mi SW 10.4 mph - 0.06 in Rain Rain
10:27 AM 61.0 °F - 60.1 °F 97% 29.78 in 2.5 mi NE 3.5 mph - 0.07 in Rain Light Rain
10:34 AM 62.1 °F - 60.1 °F 93% 29.78 in 9.0 mi Variable 3.5 mph - 0.07 in Rain Light Rain
10:53 AM 63.0 °F - 61.0 °F 93% 29.74 in 10.0 mi ESE 6.9 mph - 0.07 in   Overcast
11:53 AM 66.9 °F - 62.1 °F 84% 29.74 in 10.0 mi SSE 12.7 mph - N/A   Mostly Cloudy
12:53 PM 66.0 °F - 63.0 °F 90% 29.71 in 10.0 mi SE 8.1 mph - 0.00 in Rain Light Rain
1:53 PM 66.9 °F - 64.0 °F 90% 29.73 in 10.0 mi South 8.1 mph - 0.01 in Rain Light Rain
2:53 PM 70.0 °F - 64.9 °F 84% 29.72 in 10.0 mi South 9.2 mph - 0.00 in   Overcast
3:53 PM 70.0 °F - 64.0 °F 81% 29.69 in 10.0 mi South 10.4 mph - N/A   Mostly Cloudy
4:33 PM 69.1 °F - 64.9 °F 87% 29.72 in 10.0 mi SSW 6.9 mph - 0.00 in   Overcast
4:53 PM 69.1 °F - 63.0 °F 81% 29.70 in 10.0 mi South 8.1 mph - 0.00 in   Overcast
5:31 PM 64.4 °F - 62.6 °F 94% 29.74 in 7.0 mi WNW 19.6 mph 23.0 mph N/A   Overcast
5:39 PM 59.0 °F - 57.9 °F 96% 29.74 in 4.0 mi WNW 16.1 mph - 0.00 in Rain Light Rain
5:53 PM 55.9 °F - 55.0 °F 97% 29.73 in 2.5 mi WNW 21.9 mph - 0.00 in Rain Light Rain
6:12 PM 54.0 °F - 54.0 °F 100% 29.75 in 3.0 mi WNW 23.0 mph - 0.00 in Rain Light Rain
6:29 PM 52.0 °F - 51.1 °F 97% 29.76 in 6.0 mi WNW 23.0 mph 31.1 mph 0.00 in Rain Light Rain
6:53 PM 50.0 °F - 48.9 °F 96% 29.76 in 10.0 mi NW 23.0 mph - 0.00 in Rain Light Rain
7:53 PM 48.9 °F - 46.9 °F 93% 29.78 in 9.0 mi WNW 20.7 mph 29.9 mph 0.01 in   Overcast
8:53 PM 48.0 °F - 46.9 °F 96% 29.81 in 10.0 mi NW 19.6 mph 25.3 mph 0.00 in   Overcast
9:53 PM 46.4 °F 39.8 °F 46.4 °F 100% 29.87 in 10.0 mi WNW 16.1 mph 25.3 mph N/A   Overcast
10:53 PM 46.0 °F 38.8 °F 45.0 °F 96% 29.88 in 8.0 mi WNW 18.4 mph - N/A   Overcast
11:53 PM 46.0 °F 38.3 °F 44.1 °F 93% 29.89 in 10.0 mi NW 20.7 mph - N/A   Overcast